This demonstration page uses our WeatherBlox Daily Observations layout. Learn more.

Left ArrowRight Arrow

39.12711, -84.51439

Hourly Observations for May 24, 2018

Temp ( °F °C ) Dew Point ( °F °C ) Humidity (%) Winds ( mph kmh ) Pressure ( in mb ) Visibility ( mi km ) Precip ( " mm )
12:53 am 00:53 Clear 60 15.6 60 15.6 100 100 Calm 30.19 1022 10 16 0.00 0.00
1:53 am 01:53 Clear 59 15 59 15 100 100 Calm 30.18 1022 10 16 0.00 0.00
2:53 am 02:53 Clear 58 14.4 58 14.4 100 100 NE 3 6 30.18 1022 8 13 0.00 0.00
3:53 am 03:53 Clear 57 13.9 57 13.9 100 100 Calm 30.17 1022 7 11 0.00 0.00
4:45 am 04:45 Mostly Clear with Mist and Fog 56 13.3 56 13.3 100 100 Calm 30.18 1022 2 3 0.00 0.00
4:53 am 04:53 Mostly Cloudy with Fog 56 13.3 56 13.3 100 100 Calm 30.17 1022 1 1 0.00 0.00
5:09 am 05:09 Mostly Clear with Mist and Fog 56 13.3 56 13.3 100 100 Calm 30.18 1022 1 2 0.00 0.00
5:12 am 05:12 Mostly Clear with Mist and Fog 56 13.3 56 13.3 100 100 Calm 30.18 1022 3 5 0.00 0.00
5:42 am 05:42 Mostly Cloudy with Mist and Fog 56 13.3 56 13.3 100 100 Calm 30.18 1022 2 3 0.00 0.00
5:47 am 05:47 Mostly Cloudy with Mist and Fog 55 13 55 13 100 100 Calm 30.18 1022 1 2 0.00 0.00
5:53 am 05:53 Mostly Cloudy with Fog 55 12.8 55 12.8 100 100 Calm 30.17 1022 1 1 0.00 0.00
6:00 am 06:00 Mostly Cloudy with Fog 55 12.8 55 12.8 100 100 Calm 30.18 1022 1 1 0.00 0.00
6:09 am 06:09 Mostly Cloudy with Fog 55 12.8 55 12.8 100 100 Calm 30.18 1022 1 1 0.00 0.00
6:15 am 06:15 Clear with Mist and Fog 56 13.3 56 13.3 100 100 NE 3 6 30.18 1022 1 2 0.00 0.00
6:26 am 06:26 Mostly Cloudy with Fog 55 12.8 55 12.8 100 100 ENE 3 6 30.21 1023 1 1 0.00 0.00
6:33 am 06:33 Mostly Cloudy with Fog 55 12.8 55 12.8 100 100 NE 3 6 30.21 1023 0 0 0.00 0.00
6:47 am 06:47 Partly Cloudy with Patchy Fog 55 13 55 13 100 100 Calm 30.21 1023 10 16 0.00 0.00
6:53 am 06:53 Partly Cloudy with Patchy Fog 56 13.3 56 13.3 100 100 Calm 30.20 1023 10 16 0.00 0.00
7:53 am 07:53 Sunny 61 16.1 60 15.6 97 97 Calm 30.22 1023 10 16 0.00 0.00
8:53 am 08:53 Sunny 66 18.9 61 16.1 84 84 NNE 3 6 30.22 1023 10 16 0.00 0.00
9:53 am 09:53 Sunny 70 21.1 63 17.2 79 79 Calm 30.22 1024 10 16 0.00 0.00
10:53 am 10:53 Sunny 74 23.3 60 15.6 62 62 VRB 6 9 30.21 1023 10 16 0.00 0.00
11:53 am 11:53 Sunny 76 24.4 61 16.1 60 60 NE 10 17 30.19 1023 10 16 0.00 0.00
12:53 pm 12:53 Sunny 77 25 59 15 54 54 E 8 13 30.18 1022 10 16 0.00 0.00
1:53 pm 13:53 Sunny 79 26.1 61 16.1 54 54 NNE 8 13 30.16 1021 10 16 0.00 0.00
2:53 pm 14:53 Sunny 81 27.2 61 16.1 51 51 NNE 12 19 30.13 1020 10 16 0.00 0.00
3:53 pm 15:53 Sunny 81 27.2 60 15.6 49 49 ENE 7 11 30.11 1020 10 16 0.00 0.00
4:53 pm 16:53 Sunny 82 27.8 58 14.4 44 44 ENE 5 7 30.10 1019 10 16 0.00 0.00
5:53 pm 17:53 Sunny 82 27.8 60 15.6 47 47 ENE 8 13 30.08 1019 10 16 0.00 0.00
6:53 pm 18:53 Sunny 81 27.2 60 15.6 49 49 NE 6 9 30.07 1018 10 16 0.00 0.00
7:53 pm 19:53 Sunny 79 26.1 59 15 50 50 NE 6 9 30.06 1018 10 16 0.00 0.00
8:53 pm 20:53 Clear 71 21.7 64 17.8 79 79 Calm 30.06 1018 10 16 0.00 0.00
9:53 pm 21:53 Clear 67 19.4 60 15.6 79 79 Calm 30.07 1018 10 16 0.00 0.00
10:53 pm 22:53 Clear 63 17.2 61 16.1 93 93 Calm 30.08 1019 10 16 0.00 0.00
11:53 pm 23:53 Clear 62 16.7 60 15.6 93 93 Calm 30.08 1019 10 16 0.00 0.00

Powered by AerisWeather